Wind_Speed
6 6 5 5 4 4 4 4 4 5 4 4 4 5 5 5 5 4 5 6 7 8 8 9 10 10 10 10 10 10 10 11 11 11 12 13 13 14 14 15 15 15 14
7 7 7 7 7 7 5 4 5 6 6 6 6 6 6 6 6 6 6 7 7 8 8 9 9 9 10 10 10 10 10 10 11 12 12 12 13 14 15 16 16 16 16
9 8 8 7 7 7 7 6 6 6 6 6 7 6 7 6 7 7 7 8 8 8 8 8 9 9 9 9 10 9 9 10 10 11 12 13 13 14 15 16 17 17 17
9 9 9 9 9 9 9 8 8 7 7 7 8 7 7 7 8 8 8 9 9 9 9 8 9 9 10 10 11 10 10 10 10 11 12 13 14 15 16 16 17 17 17
9 9 10 10 10 9 9 9 8 8 8 8 8 9 8 8 8 9 9 9 10 9 8 9 9 9 10 10 11 12 11 11 11 11 12 13 14 15 16 16 16 18 18
9 10 10 10 10 10 10 10 9 9 10 10 10 10 9 9 9 9 9 9 10 9 9 9 9 10 10 10 12 12 12 12 12 12 13 14 14 15 15 16 16 17 18
11 11 11 11 11 11 11 11 11 11 11 11 11 11 11 10 11 11 10 10 10 9 9 10 10 11 11 10 11 12 13 13 12 12 13 13 13 14 15 16 17 17 17
12 12 12 12 11 11 12 12 12 12 12 13 13 14 13 12 11 11 11 11 11 11 10 11 11 11 11 11 11 11 12 12 12 13 13 14 14 15 16 16 17 18 19
12 12 13 13 13 13 13 13 14 14 14 15 15 15 15 14 13 13 12 12 12 13 12 12 11 12 11 12 12 11 12 12 13 14 15 15 16 17 17 18 19 20 21
13 13 14 15 15 15 15 15 15 16 16 16 16 16 16 15 15 14 13 13 14 14 15 14 13 13 13 13 13 13 13 13 14 16 16 17 17 18 19 19 19 20 21
15 15 15 15 16 16 16 17 16 16 17 17 17 17 17 16 15 15 15 15 16 15 15 15 15 15 15 15 15 15 15 16 16 17 18 18 18 18 19 19 20 21 21
16 16 16 16 16 17 17 17 18 18 18 18 19 18 18 17 17 16 16 17 17 17 16 16 16 17 17 16 17 17 17 17 18 18 19 19 19 19 20 20 21 22 22
17 17 17 18 18 18 18 18 19 19 20 19 19 19 19 19 18 18 18 18 18 18 18 18 18 19 18 18 18 18 18 19 19 20 20 20 21 21 21 22 22 23 22
18 18 19 19 19 19 19 20 20 20 20 20 20 20 20 20 19 19 20 20 19 19 20 19 19 20 20 20 20 20 20 21 21 21 21 22 22 22 22 22 23 23 24
19 20 20 21 21 21 21 21 21 21 21 21 21 21 21 20 20 20 20 21 21 21 21 21 20 21 21 22 21 21 21 22 22 23 23 23 23 23 24 23 23 23 23
21 21 21 21 21 22 22 22 22 22 22 21 21 21 21 21 21 21 22 22 22 22 22 22 22 23 23 22 23 23 23 23 23 24 24 24 23 24 24 24 23 23 23
22 22 22 22 22 23 23 23 22 22 23 23 23 23 23 23 23 23 23 23 23 24 24 24 24 24 24 24 25 25 25 25 25 25 25 25 25 25 25 24 24 24 25
23 23 24 24 24 23 23 24 23 23 24 24 24 24 24 24 24 24 24 24 24 25 25 25 25 25 25 25 26 26 26 26 26 26 26 26 26 25 25 25 25 26 26
25 25 25 25 25 24 24 24 24 25 25 25 25 25 25 25 25 25 25 25 26 26 26 25 25 26 26 25 26 25 26 26 26 26 27 27 27 26 25 26 26 26 27
27 27 27 26 26 26 26 26 26 26 27 26 26 25 25 25 25 25 25 25 25 25 25 25 25 25 26 26 25 25 26 26 27 27 27 27 27 26 26 26 26 27 27
27 27 27 26 27 27 27 27 28 27 27 26 25 25 26 25 25 25 25 25 25 25 25 25 26 26 26 26 26 26 26 26 27 27 28 28 27 27 26 26 26 26 26
29 29 29 28 28 28 29 29 29 28 27 25 25 25 25 25 25 26 26 25 25 26 26 27 26 26 26 27 27 26 26 26 27 27 28 27 27 26 27 26 26 26 27
30 30 29 29 30 31 31 30 29 28 27 27 26 25 25 26 26 26 26 26 26 26 26 26 26 26 27 26 27 27 27 27 26 26 27 27 26 25 26 26 26 27 27
30 30 30 31 32 32 31 30 29 29 28 27 26 25 26 26 26 26 26 26 26 26 27 27 27 28 28 28 27 27 27 27 26 26 26 25 26 25 25 25 25 26 26
30 30 31 31 32 31 29 29 28 27 26 26 26 26 27 27 27 27 27 27 27 28 28 28 28 29 29 29 29 28 28 27 26 26 26 25 25 25 25 25 25 25 25
31 31 31 31 31 30 28 27 27 26 26 26 27 28 29 29 28 28 27 28 28 28 28 28 28 29 29 29 29 29 28 28 26 26 26 26 26 26 26 26 25 24 24
Wind_Direction
29 31 26 17 15 8 355 338 334 334 319 315 311 305 302 303 282 269 267 278 280 275 269 272 269 267 273 276 277 275 272 269 264 255 249 247 246 249 251 252 252 251 253
27 21 18 15 19 15 4 350 344 343 343 331 322 321 313 308 304 292 289 287 288 287 281 280 282 285 283 277 276 277 273 268 261 254 252 252 249 249 250 251 251 250 252
25 19 15 11 12 7 7 359 352 345 343 338 331 329 325 316 309 307 305 305 305 303 297 292 291 290 290 288 284 281 279 273 265 258 253 253 253 251 252 253 252 251 252
17 16 10 7 6 2 2 1 356 349 341 336 332 332 328 318 317 313 309 309 308 307 306 297 292 289 288 288 288 282 278 271 268 263 258 258 258 257 255 255 255 252 251
7 7 8 7 3 2 359 357 352 344 340 335 334 331 327 323 318 315 310 311 312 313 308 302 295 292 290 290 286 281 276 271 268 267 264 263 264 262 260 257 256 254 253
4 4 4 2 357 354 352 349 347 343 338 332 327 328 325 319 316 316 315 314 314 313 308 299 294 292 290 292 289 284 276 270 265 266 266 266 268 265 262 262 260 259 256
2 358 353 353 351 349 346 342 339 337 334 331 329 325 321 316 312 310 309 311 312 313 304 292 288 287 287 292 294 288 283 274 266 269 270 271 271 268 265 266 264 263 261
354 352 349 347 345 343 340 336 333 331 330 327 324 321 321 317 313 312 308 307 306 307 305 293 292 291 292 290 288 288 286 282 277 274 272 272 272 272 270 269 268 266 265
350 348 344 343 340 335 333 330 328 328 327 326 323 321 319 316 317 315 311 309 305 304 302 298 293 294 296 295 290 286 284 286 284 281 279 276 275 274 275 274 272 268 266
345 343 340 338 336 333 330 329 325 323 322 321 319 317 315 315 314 312 309 308 308 307 305 300 297 296 294 292 293 290 285 286 285 282 282 280 279 277 276 273 274 271 270
341 339 337 334 333 331 328 326 324 322 319 318 314 313 313 310 309 306 304 303 302 303 301 299 297 294 291 292 293 291 288 285 283 282 281 281 280 279 276 274 273 272 271
337 336 335 332 330 328 326 324 323 320 317 314 311 310 308 306 306 303 301 299 299 298 298 298 297 294 290 289 288 288 287 287 287 284 284 283 282 280 279 277 276 273 271
333 332 331 328 326 325 323 321 319 317 315 313 310 308 306 302 301 300 299 298 297 296 297 297 296 293 290 287 286 287 287 289 287 286 285 284 284 282 279 277 276 273 273
328 327 326 324 322 321 320 319 317 317 316 313 310 308 306 302 298 296 296 296 296 296 296 296 296 294 290 289 286 285 285 285 285 285 284 283 283 281 279 279 278 275 273
322 321 321 320 318 317 316 316 316 314 312 310 308 307 304 301 297 295 294 294 294 295 295 294 295 295 292 288 287 285 284 283 284 285 286 284 283 282 282 281 278 275 273
317 317 318 317 316 314 313 312 312 312 311 308 306 305 302 300 297 294 292 291 291 293 294 295 293 293 292 290 288 285 284 283 284 285 284 283 281 281 281 280 276 274 273
316 315 315 315 313 312 311 310 310 310 309 307 305 303 301 299 297 295 293 290 289 289 291 292 292 291 290 289 288 284 284 283 283 283 283 282 280 279 279 278 276 274 273
314 314 314 314 312 310 310 309 307 307 307 306 304 302 300 299 297 296 294 292 289 289 289 289 290 291 290 289 288 286 285 283 283 282 282 281 281 280 277 277 276 274 274
311 312 312 312 312 311 310 308 306 305 305 304 303 301 299 298 297 296 296 294 292 290 290 290 290 291 292 292 290 290 288 285 284 282 282 282 282 283 281 277 276 274 274
309 310 310 311 311 311 309 306 305 305 304 303 301 300 299 298 298 297 296 295 294 293 292 292 291 291 293 292 291 291 289 287 284 282 281 281 282 282 281 278 276 275 274
310 310 310 309 309 309 308 307 305 305 304 303 301 299 300 300 299 297 296 296 296 295 294 292 292 291 292 292 292 290 289 290 286 282 280 280 282 282 283 280 276 276 275
309 309 309 309 308 308 308 306 306 305 305 303 302 301 300 301 300 299 297 296 295 294 294 293 293 292 292 292 291 291 291 289 288 285 282 281 282 280 280 279 277 276 275
308 308 310 311 310 308 308 306 304 304 303 301 301 300 299 299 298 298 297 295 294 294 295 294 293 294 294 293 291 291 291 290 289 289 286 286 286 283 281 279 276 275 275
309 309 309 309 309 308 307 306 304 303 302 302 301 300 299 298 297 296 295 294 294 293 293 292 291 292 292 292 291 291 290 290 289 288 287 287 286 284 283 281 280 276 274
311 311 311 310 310 309 308 306 305 304 301 301 301 301 301 299 297 294 294 294 293 293 292 291 292 293 292 291 290 290 289 288 287 288 287 288 287 286 286 283 282 279 275
311 311 310 310 310 310 309 308 307 304 302 301 301 301 300 300 297 294 293 293 292 293 292 292 291 291 291 291 290 289 287 287 287 286 286 286 286 286 285 284 282 280 277
Height
5865 5865 5864 5864 5863 5862 5862 5861 5860 5860 5860 5859 5859 5859 5859 5859 5859 5859 5859 5859 5858 5858 5859 5859 5859 5859 5859 5859 5859 5858 5857 5856 5856 5857 5860 5861 5862 5863 5865 5866 5867 5868 5869
5866 5866 5865 5864 5864 5863 5862 5861 5861 5860 5860 5860 5860 5859 5859 5859 5858 5858 5858 5858 5857 5857 5856 5857 5857 5857 5857 5857 5857 5856 5855 5854 5854 5855 5858 5859 5860 5861 5862 5862 5864 5865 5866
5867 5866 5866 5865 5864 5862 5861 5861 5861 5861 5860 5860 5859 5858 5858 5858 5858 5857 5857 5856 5856 5855 5854 5855 5855 5855 5854 5854 5854 5854 5854 5853 5853 5854 5855 5856 5857 5858 5858 5859 5860 5861 5862
5868 5867 5866 5865 5865 5863 5862 5862 5861 5861 5860 5860 5859 5858 5857 5857 5857 5856 5855 5855 5854 5853 5853 5852 5853 5853 5852 5852 5852 5852 5852 5851 5851 5852 5852 5853 5853 5854 5855 5855 5856 5857 5858
5869 5868 5867 5866 5865 5864 5863 5862 5861 5861 5860 5859 5857 5857 5857 5856 5856 5855 5854 5853 5852 5851 5850 5850 5850 5850 5850 5849 5849 5849 5849 5848 5848 5849 5849 5850 5850 5850 5851 5851 5852 5853 5854
5869 5868 5867 5866 5865 5864 5863 5862 5861 5860 5859 5858 5857 5856 5856 5855 5854 5853 5852 5851 5850 5849 5849 5848 5848 5848 5847 5847 5846 5846 5845 5845 5845 5845 5846 5846 5846 5846 5847 5847 5848 5849 5849
5869 5868 5867 5866 5865 5864 5863 5862 5861 5860 5858 5857 5856 5855 5854 5853 5852 5851 5851 5850 5849 5848 5847 5846 5845 5845 5845 5843 5842 5841 5841 5841 5841 5842 5842 5842 5842 5842 5843 5843 5843 5844 5844
5869 5868 5867 5865 5864 5863 5862 5861 5860 5859 5857 5856 5855 5854 5853 5852 5850 5850 5848 5848 5847 5846 5845 5844 5843 5842 5841 5840 5839 5838 5838 5838 5838 5838 5838 5838 5838 5838 5839 5839 5839 5839 5840
5869 5868 5866 5865 5863 5862 5861 5860 5858 5857 5856 5854 5853 5852 5851 5849 5848 5847 5846 5845 5844 5843 5842 5841 5840 5839 5838 5837 5837 5836 5835 5835 5834 5834 5834 5834 5834 5834 5834 5834 5834 5834 5834
5868 5867 5865 5863 5862 5861 5859 5858 5857 5855 5854 5852 5851 5849 5848 5846 5846 5845 5844 5842 5841 5841 5839 5838 5836 5836 5835 5834 5833 5832 5832 5831 5831 5830 5830 5830 5829 5829 5829 5829 5828 5828 5828
5867 5866 5864 5862 5861 5859 5857 5856 5854 5853 5851 5850 5848 5846 5845 5843 5843 5842 5840 5839 5838 5837 5836 5834 5833 5833 5832 5830 5830 5828 5828 5827 5827 5826 5826 5825 5824 5824 5824 5823 5823 5822 5822
5866 5864 5862 5860 5859 5857 5855 5853 5852 5850 5848 5846 5845 5843 5841 5840 5839 5838 5837 5836 5834 5833 5832 5831 5830 5829 5827 5826 5825 5824 5823 5822 5822 5821 5820 5819 5819 5818 5818 5817 5817 5816 5816
5864 5862 5860 5858 5856 5855 5853 5851 5849 5847 5844 5843 5841 5839 5838 5836 5835 5834 5832 5831 5830 5829 5828 5827 5826 5824 5823 5822 5821 5819 5818 5817 5816 5816 5815 5814 5813 5812 5812 5811 5811 5810 5810
5862 5859 5857 5855 5853 5851 5849 5847 5845 5843 5841 5839 5837 5835 5834 5832 5830 5829 5828 5826 5825 5824 5823 5822 5821 5819 5817 5816 5815 5814 5813 5812 5811 5810 5809 5808 5807 5806 5805 5804 5804 5803 5803
5858 5856 5854 5852 5850 5847 5845 5843 5841 5839 5837 5834 5832 5830 5828 5827 5825 5824 5823 5821 5821 5819 5818 5817 5815 5814 5812 5810 5809 5808 5807 5806 5805 5804 5803 5802 5801 5800 5799 5797 5797 5796 5796
5855 5853 5851 5848 5846 5843 5841 5839 5837 5834 5832 5830 5827 5825 5823 5821 5820 5818 5817 5816 5814 5813 5812 5811 5809 5808 5806 5803 5802 5801 5800 5799 5798 5797 5796 5795 5794 5793 5792 5791 5790 5789 5789
5851 5849 5846 5844 5841 5839 5836 5834 5832 5829 5827 5825 5822 5820 5818 5816 5814 5812 5811 5809 5808 5807 5806 5804 5802 5801 5799 5797 5796 5794 5793 5792 5791 5790 5789 5787 5786 5785 5784 5783 5782 5782 5781
5847 5844 5841 5839 5836 5834 5831 5829 5826 5824 5822 5819 5816 5814 5812 5810 5808 5806 5804 5802 5801 5800 5799 5798 5796 5794 5792 5790 5788 5786 5785 5784 5783 5782 5781 5780 5779 5777 5776 5776 5775 5774 5774
5842 5839 5836 5834 5831 5828 5826 5823 5820 5818 5815 5813 5810 5808 5806 5803 5801 5799 5797 5796 5794 5793 5791 5790 5788 5786 5784 5783 5780 5778 5777 5776 5775 5774 5773 5772 5771 5769 5768 5767 5767 5766 5765
5836 5834 5831 5828 5825 5822 5820 5817 5814 5812 5809 5806 5804 5801 5799 5797 5795 5792 5790 5789 5787 5785 5784 5782 5780 5779 5777 5775 5774 5772 5770 5768 5767 5766 5765 5764 5763 5761 5760 5759 5759 5758 5757
5831 5828 5825 5822 5819 5816 5813 5811 5808 5805 5802 5800 5797 5795 5792 5790 5788 5786 5784 5782 5780 5778 5776 5774 5773 5771 5769 5768 5766 5764 5762 5760 5758 5757 5756 5755 5754 5753 5752 5751 5750 5750 5749
5825 5822 5819 5816 5813 5810 5807 5804 5801 5798 5795 5793 5791 5788 5786 5784 5782 5779 5777 5774 5773 5771 5769 5767 5765 5763 5761 5760 5758 5756 5754 5753 5751 5750 5748 5747 5746 5745 5745 5744 5743 5742 5741
5819 5815 5812 5809 5806 5803 5800 5797 5794 5791 5789 5786 5784 5782 5779 5777 5775 5772 5770 5768 5766 5763 5762 5760 5758 5755 5753 5752 5750 5748 5746 5744 5743 5742 5740 5739 5738 5737 5737 5735 5735 5734 5733
5812 5809 5806 5803 5800 5797 5793 5790 5787 5784 5782 5779 5777 5774 5772 5770 5767 5765 5763 5761 5759 5757 5754 5752 5750 5748 5746 5744 5742 5740 5738 5737 5735 5734 5732 5731 5730 5730 5729 5727 5726 5725 5724
5806 5803 5799 5796 5792 5789 5786 5783 5780 5777 5775 5773 5770 5767 5765 5762 5760 5758 5755 5753 5751 5749 5746 5744 5742 5740 5738 5736 5734 5732 5730 5728 5727 5726 5724 5723 5723 5721 5720 5719 5718 5717 5716
5799 5796 5793 5789 5786 5782 5779 5776 5773 5770 5768 5766 5763 5760 5758 5755 5752 5749 5747 5745 5743 5741 5738 5736 5735 5732 5730 5728 5725 5724 5722 5720 5719 5718 5717 5715 5715 5713 5713 5711 5710 5709 5708